Location: Castelnau
(43.6639°N, 0.8431°W)
Time: 17:22:40
(UTC+00:00)

IGS 5A - Pass Details

Date: 13 January 2026
Orbit: 551 x 554 km, 97.4° (Epoch: 8 January)

Event Time Altitude Azimuth Distance (km) Brightness Sun altitude
Rises 06:05:44 0° 9° (N) 2,738 6.8 -15.7°
Reaches altitude 10° 06:07:53 10° 7° (N) 1,839 5.9 -15.4°
Maximum altitude 06:11:50 70° 285° (WNW) 592 3.2 -14.7°
Drops below altitude 10° 06:15:45 10° 202° (SSW) 1,824 5.9 -14.0°
Sets 06:17:53 0° 199° (SSW) 2,713 6.8 -13.6°
